Weather History for LIEB - September, 2012

Change the Weather History Date:

Friday, September 7, 2012

  Actual Average (LIED) Record (LIED)
Temperature  
Mean Temperature 77 °F -  
Max Temperature 83 °F 77 °F 95 °F (2008)
Min Temperature 71 °F 65 °F 55 °F (2007)
Cooling Degree Days 12    
Growing Degree Days 27 (Base 50)    
Moisture  
Dew Point 68 °F    
Average Humidity 76    
Maximum Humidity 94    
Minimum Humidity 61    
Precipitation  
Precipitation 0.00 in 0.06 in - ()
Sea Level Pressure  
Sea Level Pressure 30.09 in    
Wind  
Wind Speed 9 mph ()    
Max Wind Speed 18 mph    
Max Gust Speed -    
Visibility 7.6 miles    
Events      
Averages and records for this station are not official NWS values.
T = Trace of Precipitation, MM = Missing Value Source: Averaged Metar Reports

Daily Weather History Graph

Daily Weather History Graph

Search for Another Location

Airport or City:

Trip Planner

Search our weather history database for the weather conditions in past years. The results will help you decide how hot, cold, wet, or windy it might be!

Date:

Astronomy

Sep. 07, 2012 Rise Set
Actual Time 6:54 AM CEST 7:42 PM CEST
Civil Twilight 6:27 AM CEST 8:09 PM CEST
Nautical Twilight 5:54 AM CEST 8:42 PM CEST
Astronomical Twilight 5:21 AM CEST 9:15 PM CEST
Moon 11:25 PM CEST (9/7) 1:32 PM CEST (9/7)
Length of Visible Light 13h 42m
Length of Day
12h 47m
Waning Gibbous, 61% of the Moon is Illuminated
Sep 7
Waning Gibbous
Sep 8
Last Quarter
Sep 16
New
Sep 22
First Quarter
Sep 30
Full

Hourly Weather History & Observations

Time (CEST) Temp. Heat Index Dew Point Humidity Pressure Visibility Wind Dir Wind Speed Gust Speed Precip Events Conditions
12:55 AM 71.6 °F - 66.2 °F 83% 30.06 in - NW 8.1 mph - N/A   Clear
1:55 AM 71.6 °F - 66.2 °F 83% 30.09 in - WNW 9.2 mph - N/A   Clear
2:00 AM 72 °F - 67 °F 79% 30.08 in 12 mi WNW 9.2 mph - -  
2:55 AM 71.6 °F - 66.2 °F 83% 30.09 in - NW 10.4 mph - N/A   Clear
3:55 AM 71.6 °F - 66.2 °F 83% 30.09 in - NW 10.4 mph - N/A   Clear
4:55 AM 71.6 °F - 64.4 °F 78% 30.09 in - NW 10.4 mph - N/A   Clear
6:55 AM 71.6 °F - 62.6 °F 73% 30.09 in - NW 13.8 mph - N/A   Clear
7:55 AM 71.6 °F - 60.8 °F 69% 30.09 in - NW 11.5 mph - N/A   Clear
8:00 AM 72 °F - 62 °F 62% 30.08 in 12 mi NW 11.5 mph - -  
8:55 AM 73.4 °F - 62.6 °F 69% 30.09 in - NW 6.9 mph - N/A   Clear
9:55 AM 80.6 °F 82.7 °F 66.2 °F 61% 30.09 in - ENE 12.7 mph - N/A   Clear
10:55 AM 80.6 °F 83.9 °F 69.8 °F 70% 30.12 in 6.2 mi ENE 13.8 mph - N/A   Partly Cloudy
11:55 AM 80.6 °F 84.6 °F 71.6 °F 74% 30.12 in 6.2 mi ENE 10.4 mph - N/A   Partly Cloudy
12:55 PM 82.4 °F 87.2 °F 71.6 °F 70% 30.12 in 6.2 mi East 11.5 mph - N/A   Partly Cloudy
1:55 PM 82.4 °F 87.2 °F 71.6 °F 70% 30.12 in 6.2 mi East 11.5 mph - N/A   Partly Cloudy
2:00 PM 82 °F - 72 °F 65% 30.10 in 12 mi East 11.5 mph - -   Scattered Clouds
2:55 PM 82.4 °F 87.2 °F 71.6 °F 70% 30.12 in 6.2 mi ENE 18.4 mph - N/A   Partly Cloudy
3:55 PM 78.8 °F - 69.8 °F 74% 30.09 in 6.2 mi ENE 17.3 mph - N/A   Partly Cloudy
4:55 PM 77.0 °F - 66.2 °F 69% 30.09 in 6.2 mi East 12.7 mph - N/A   Partly Cloudy
5:55 PM 77.0 °F - 69.8 °F 78% 30.09 in 6.2 mi East 9.2 mph - N/A   Partly Cloudy
6:55 PM 77.0 °F - 69.8 °F 78% 30.09 in 6.2 mi East 5.8 mph - N/A   Scattered Clouds
7:55 PM 75.2 °F - 69.8 °F 83% 30.09 in 6.2 mi East 6.9 mph - N/A   Scattered Clouds
8:00 PM 76 °F - 70 °F 76% 30.10 in 12 mi East 6.9 mph - -   Partly Cloudy
8:55 PM 75.2 °F - 69.8 °F 83% 30.09 in 6.2 mi East 5.8 mph - N/A   Scattered Clouds
9:55 PM 75.2 °F - 71.6 °F 89% 30.09 in 6.2 mi East 5.8 mph - N/A   Partly Cloudy
10:55 PM 73.4 °F - 71.6 °F 94% 30.09 in 6.2 mi ENE 5.8 mph - N/A   Partly Cloudy
11:55 PM 73.4 °F - 69.8 °F 88% 30.09 in - NW 10.4 mph - N/A   Clear